Regional Weather Roundup
Issued by NWS

Home | Current Version | Previous Version | Graphics & Text | Print | Product List | Glossary On
Versions: 1 2 3 4 5 6 7 8 9 10 11 12 13 14 15 16 17 18 19 20 21 22 23 24 25 26 27 28 29 30 31 32 33 34 35 36 37 38 39 40 41 42 43 44 45 46 47 48 49 50
000
ASUS43 KIND 021159
RWRIN

WEATHER ROUNDUP FOR INDIANA
NATIONAL WEATHER SERVICE INDIANAPOLIS IN
800 AM EDT MON MAY 02 2016

NOTE: "FAIR" INDICATES FEW OR NO CLOUDS BELOW 12,000 FEET WITH NO
SIGNIFICANT WEATHER AND/OR OBSTRUCTIONS TO VISIBILITY.

* - STATION DOES NOT REPORT WEATHER SUCH AS PRECIPITATION OR FOG.

+ - STATION NOT QUALITY CONTROLLED BY THE NATIONAL WEATHER SERVICE.
    USE DATA WITH CAUTION...ESPECIALLY DEWPOINT AND RELATIVE
    HUMIDITY OBSERVATIONS.

INZ001>003-010>013-019-020-021300-
NORTHWEST INDIANA

CITY           SKY/WX    TMP DP  RH WIND       PRES   REMARKS
GARY /AIRPORT/ MOSUNNY   46  45  93 N12G23    30.05R

$$

LMZ046-743>745-021300-
SOUTHERN LAKE MICHIGAN

STATION/POSITION TIME  TEMP    WIND        PRES    WAVE
                       AIR SEA DIR/SP/G            HT
                 (UTC) (F)     (DEG/KT/KT) (MB)    (FT)
BURNS HARBOR     1122   45      30/ 17/ 24 1016.9R
MICHIGAN CITY    1130   45      20/ 22/ 23   N/A

$$

INZ004-005-014>016-021>024-021300-
NORTH CENTRAL INDIANA

CITY           SKY/WX    TMP DP  RH WIND       PRES   REMARKS
ELKHART        CLOUDY    45  45 100 NE7       30.02R
GOSHEN         CLOUDY    45  42  89 NE10      30.01R
6HR MIN TEMP:  45; 6HR MAX TEMP:  48; 6HR PCP: TRACE;

SOUTH BEND     CLOUDY    44  42  93 NE7       30.03R
6HR MIN TEMP:  44; 6HR MAX TEMP:  46;


$$

INZ006>009-017-018-025>027-021300-
NORTHEAST INDIANA

CITY           SKY/WX    TMP DP  RH WIND       PRES   REMARKS
ANGOLA *+      CLOUDY    45  34  65 N7        29.99R
FORT WAYNE     DRIZZLE   49  46  90 N8        30.00R FOG
6HR MIN TEMP:  49; 6HR MAX TEMP:  51; 6HR PCP: TRACE;


$$

INZ028-029-035-036-043>045-051>053-021300-
WEST CENTRAL INDIANA

CITY           SKY/WX    TMP DP  RH WIND       PRES   REMARKS
CRAWFORDSVL +  CLOUDY    47  47 100 W7        30.00R FOG
6HR MIN TEMP:  47; 6HR MAX TEMP:  53;

GREENCASTLE +  CLOUDY    50  50 100 W6        30.00S
LAFAYETTE      CLOUDY    49  48  97 N8        30.00R FOG
6HR MIN TEMP:  49; 6HR MAX TEMP:  51;

TERRE HAUTE    CLOUDY    53  46  77 NW9       30.01R
6HR MIN TEMP:  53; 6HR MAX TEMP:  57;


$$

INZ030>032-037>040-046>048-054>057-064-065-021300-
CENTRAL INDIANA

CITY           SKY/WX    TMP DP  RH WIND       PRES   REMARKS
COLUMBUS       CLOUDY    55  55 100 W9        29.99R
INDIANAPOLIS   CLOUDY    51  48  89 W15       29.96R FOG
6HR MIN TEMP:  51; 6HR MAX TEMP:  59;

-EAGLE CREEK   CLOUDY    52  50  93 NW10      29.98R FOG
6HR MIN TEMP:  52; 6HR MAX TEMP:  60; 6HR PCP: TRACE;

KOKOMO *+      CLOUDY    52  46  82 NE6       29.98R
6HR MIN TEMP:  52; 6HR MAX TEMP:  54;

SHELBYVILLE    CLOUDY    58  52  80 W12       29.96R
6HR MIN TEMP:  58; 6HR MAX TEMP:  63;


$$

INZ033-034-041-042-049-050-058-059-021300-
EAST CENTRAL INDIANA

CITY           SKY/WX    TMP DP  RH WIND       PRES   REMARKS
MUNCIE         CLOUDY    53  50  89 N7        29.97R FOG
6HR MIN TEMP:  53; 6HR MAX TEMP:  56;


$$

INZ060-061-067>069-081>083-085>088-021300-
SOUTHWEST INDIANA

CITY           SKY/WX    TMP DP  RH WIND       PRES   REMARKS
EVANSVILLE     CLOUDY    55  51  86 W5        30.02S
6HR MIN TEMP:  54; 6HR MAX TEMP:  60;

HUNTINGBURG *+ PTSUNNY   55  52  88 NW6       30.01F
6HR MIN TEMP:  54; 6HR MAX TEMP:  61;


$$

INZ062-063-066-070>080-084-089>092-021300-
SOUTH CENTRAL AND SOUTHEAST INDIANA

CITY           SKY/WX    TMP DP  RH WIND       PRES   REMARKS
BLOOMINGTON    CLOUDY    53  47  79 W6        30.00R
6HR MIN TEMP:  52; 6HR MAX TEMP:  60;

MADISON *+     CLOUDY    57  54  88 W8        30.00R
SEYMOUR +      CLOUDY    57  52  82 W13       29.99R

$$





USA.gov is the U.S. government's official web portal to all federal, state and local government web resources and services.